Simultaneous Nadir Overpasses (SNOs) Predictions

Prediction of SNOs between LANDSAT-8 and METOP-A Satellite Orbit:

Table of predicted SNOs for the next 14.0 days since TLE Epoch: 12/27/2013
Index Date (LANDSAT-8) Time (LANDSAT-8) Lat,Lon (LANDSAT-8) SZA (LANDSAT-8 ) Date (METOP-A) Time (METOP-A) Lat,Lon (METOP-A) SZA (METOP-A ) Distance(km) Time Diff (sec)
1 12/27/2013 15:22:32 -81.16, 169.85 73.60 12/27/2013 15:22:20 -81.17, 169.87 73.60 0.71 12
2 12/27/2013 16:11:57 81.19, -22.12 106.46 12/27/2013 16:12:59 81.19, -22.09 106.49 0.53 62
3 12/30/2013 10:56:45 -81.19,-123.34 73.74 12/30/2013 10:56:41 -81.18,-123.36 73.75 0.76 4
4 12/30/2013 11:46:11 81.19, 44.31 106.26 12/30/2013 11:47:21 81.19, 44.30 106.29 0.43 70
5 01/02/2014 05:41:33 81.16, 134.94 105.94 01/02/2014 05:40:24 81.16, 135.01 105.92 1.27 69
6 01/02/2014 06:30:58 -81.18, -57.02 74.01 01/02/2014 06:31:02 -81.18, -57.01 74.01 0.22 4
7 01/05/2014 01:15:45 81.16,-158.53 105.64 01/05/2014 01:14:45 81.16,-158.70 105.60 3.03 60
8 01/05/2014 02:05:11 -81.19, 9.53 74.31 01/05/2014 02:05:23 -81.19, 9.67 74.29 2.39 12
9 01/07/2014 20:49:58 81.16, -92.12 105.27 01/07/2014 20:49:06 81.16, -92.08 105.25 0.80 52




NCC Satellite Simultaneous Nadir Overpasses (SNOs) Prediction Service
